This demonstration page uses our WeatherBlox Daily Observations layout. Learn more.

Left ArrowRight Arrow

44.89941, -97.11507

Hourly Observations for October 30, 2019

Temp ( °F °C ) Dew Point ( °F °C ) Humidity (%) Winds ( mph kmh ) Pressure ( in mb ) Visibility ( mi km ) Precip ( " mm )
12:53 am 00:53 Partly Cloudy 18 -7.8 13 -10.6 81 81 WSW 6 9 30.41 1030 10 16 0.00 0.00
1:53 am 01:53 Mostly Clear 19 -7.2 13 -10.6 77 77 W 9 15 30.39 1029 10 16 0.00 0.00
2:53 am 02:53 Clear 18 -7.8 13 -10.6 81 81 SW 7 11 30.40 1030 10 16 0.00 0.00
3:53 am 03:53 Mostly Cloudy 18 -7.8 14 -10 84 84 WSW 7 11 30.38 1029 10 16 0.00 0.00
4:53 am 04:53 Cloudy 20 -6.7 15 -9.4 81 81 W 7 11 30.37 1029 10 16 0.00 0.00
5:53 am 05:53 Mostly Clear 17 -8.3 13 -10.6 84 84 SSW 7 11 30.39 1029 10 16 0.00 0.00
6:53 am 06:53 Clear 21 -6.1 14 -10 74 74 WNW 9 15 30.39 1029 10 16 0.00 0.00
7:53 am 07:53 Clear 20 -6.7 14 -10 78 78 WNW 13 20 30.38 1029 10 16 0.00 0.00
8:53 am 08:53 Sunny 20 -6.7 14 -10 78 78 WNW 9 15 30.39 1029 10 16 0.00 0.00
9:53 am 09:53 Sunny 22 -5.6 15 -9.4 75 75 WNW 13 20 30.39 1029 10 16 0.00 0.00
10:53 am 10:53 Mostly Sunny 25 -3.9 16 -8.9 69 69 W 13 20 30.40 1029 10 16 0.00 0.00
11:53 am 11:53 Sunny 26 -3.3 15 -9.4 63 63 W 12 19 30.39 1029 10 16 0.00 0.00
12:53 pm 12:53 Mostly Sunny 27 -2.8 13 -10.6 55 55 WNW 10 17 30.37 1028 10 16 0.00 0.00
1:53 pm 13:53 Partly Cloudy 29 -1.7 14 -10 54 54 W 9 15 30.34 1027 10 16 0.00 0.00
2:53 pm 14:53 Mostly Sunny 30 -1.1 13 -10.6 49 49 WSW 16 26 30.32 1027 10 16 0.00 0.00
3:53 pm 15:53 Sunny 31 -0.6 11 -11.7 43 43 W 17 28 30.30 1026 10 16 0.00 0.00
4:53 pm 16:53 Sunny 30 -1.1 11 -11.7 45 45 WNW 14 22 30.29 1026 10 16 0.00 0.00
5:53 pm 17:53 Sunny 29 -1.7 12 -11.1 49 49 WNW 13 20 30.28 1025 10 16 0.00 0.00
6:53 pm 18:53 Clear 27 -2.8 13 -10.6 55 55 WNW 7 11 30.27 1025 10 16 0.00 0.00
7:53 pm 19:53 Clear 25 -3.9 14 -10 63 63 W 6 9 30.27 1025 10 16 0.00 0.00
8:53 pm 20:53 Mostly Cloudy 23 -5 14 -10 68 68 W 5 7 30.27 1025 10 16 0.00 0.00
9:53 pm 21:53 Clear 23 -5 15 -9.4 72 72 W 5 7 30.26 1025 10 16 0.00 0.00
10:53 pm 22:53 Clear 21 -6.1 15 -9.4 78 78 W 3 6 30.25 1024 10 16 0.00 0.00
11:53 pm 23:53 Clear 20 -6.7 14 -10 78 78 W 6 9 30.24 1024 10 16 0.00 0.00

Powered by AerisWeather